Regional Weather Roundup
Issued by NWS

Home | Current Version | Previous Version | Text Only | Print | Product List | Glossary On
Versions: 1 2 3 4 5 6 7 8 9 10 11 12 13 14 15 16 17 18 19 20 21 22 23 24 25 26 27 28 29 30 31 32 33 34 35 36 37 38 39 40 41 42 43 44 45 46 47 48 49 50
000
ASUS43 KLSX 310359
RWRMO

WEATHER SUMMARY FOR MISSOURI
NATIONAL WEATHER SERVICE SPRINGFIELD MO
1100 PM CDT WED JUL 30 2014

NOTE: "FAIR" INDICATES FEW OR NO CLOUDS BELOW 12,000 FEET WITH NO
       SIGNIFICANT WEATHER AND/OR OBSTRUCTIONS TO VISIBILITY.
       CURRENT SKY AND/OR WEATHER CONDITIONS ARE NOT AVAILABLE FOR
       CHILLICOTHE AND FARMINGTON.

MOZ001>031-035>038-043-044-053-054-310500-
...NORTHERN AND WESTERN MISSOURI...

CITY           SKY/WX    TMP DP  RH WIND       PRES   REMARKS
KANSAS CTY INT PTCLDY    66  57  72 N5        30.10R
KANSAS C DTWN  CLEAR     73  59  61 W3        30.09R
LEE`S SUMMIT   PTCLDY    65  61  87 SW5       30.10R
ST JOSEPH      CLEAR     61  58  90 CALM      30.11R
CHILLICOTHE      N/A     64  59  83 CALM      30.10R
KIRKSVILLE     CLEAR     60  58  92 CALM      30.10S

$$
MOZ066>068-077>081-088>096-101>105-310500-
...SOUTHWEST MISSOURI...

CITY           SKY/WX    TMP DP  RH WIND       PRES   REMARKS
SPRINGFIELD    CLOUDY    67  64  90 SW3       30.09R
JOPLIN         CLOUDY    66  65  96 NE3       30.09S

$$
MOZ032>034-039>042-045>050-055>058-069>072-310500-
...CENTRAL MISSOURI...

CITY           SKY/WX    TMP DP  RH WIND       PRES   REMARKS
COLUMBIA       MOCLDY    68  60  75 N3        30.09R
JEFFERSON CITY MOCLDY    70  60  70 CALM      30.07R
ROLLA          MOCLDY    63  59  87 W3        30.08R
SEDALIA        PTCLDY    67  59  75 CALM      30.09S
OSAGE BEACH    MOCLDY    63  59  88 CALM      30.08S

$$
MOZ051-052-059>065-310500-
...EAST CENTRAL MISSOURI...

CITY           SKY/WX    TMP DP  RH WIND       PRES   REMARKS
ST LOUIS INTL  MOCLDY    76  59  55 E3        30.07S
SPIRIT OF STL  MOCLDY    68  62  81 SW3       30.06R
ST CHARLES     PTCLDY    67  62  84 N3        30.06R

$$
MOZ072>076-082>087-097>100-106>115-310500-
...SOUTH CENTRAL AND SOUTHEAST MISSOURI...

CITY           SKY/WX    TMP DP  RH WIND       PRES   REMARKS
CAPE GIRARDEAU MOCLDY    66  63  90 CALM      30.07S
FARMINGTON     MOCLDY    64  61  88 CALM      30.10S
POPLAR BLUFF   MOCLDY    69  64  84 CALM      30.06R
WEST PLAINS    CLOUDY    66  64  93 CALM      30.10S FOG

$$



USA.gov is the U.S. government's official web portal to all federal, state and local government web resources and services.